Vertical_Velocity
4 1 -2 6 8 -11 -1 4 12 4 -1 7 15 11 1 -3 -1 -0 -5 -1 -3 1 1 0 -3 -2 -0 -1 -3 -1 -2 1 0 -3 1 -4 -4 -4 -6 -2 -3 -1 -0 -3 2 -3 -3 0 1
2 -0 -2 4 -1 1 4 6 1 -3 -3 2 4 8 1 -4 -0 1 2 -4 -2 2 -2 -3 -2 3 2 2 0 -1 -2 1 -1 -1 -2 0 -1 -2 -0 -4 1 -2 -2 -4 1 -4 1 -2 1
4 2 1 2 6 -6 -4 11 -15 8 14 -7 1 3 -8 -3 -0 -3 -6 -1 -0 1 -1 0 -0 4 3 -1 1 0 2 2 2 1 3 -1 4 2 4 3 -1 -1 -5 -1 1 -5 3 -1 3
5 4 -2 3 0 0 8 7 4 -21 1 -10 -4 -1 -3 -0 -5 -2 -3 -2 -1 -0 -0 2 3 0 1 2 -1 -1 -3 -2 -2 -4 -5 2 -0 -1 1 3 -0 -0 -4 -4 1 -4 1 -2 -1
4 8 -4 -4 14 22 17 11 2 -12 5 6 4 -7 -1 2 3 2 -2 2 1 2 -1 3 1 -0 -1 -2 -1 -3 -4 -6 -7 -3 3 3 -1 2 5 -2 1 -3 2 -0 -1 -3 -1 -3 0
-5 -8 3 2 3 0 -15 17 -3 8 5 -5 -5 -3 -3 2 1 -2 1 -3 1 2 -1 3 2 -0 -0 -1 0 -2 2 1 3 1 -3 -4 -3 -4 -5 -6 -4 -5 2 -2 -0 -4 -3 -3 -1
-4 -6 -5 -3 -4 60 -33 36 -7 -2 3 -7 -6 -8 -7 -5 -1 -1 -0 -1 1 0 3 1 -3 -1 -0 -4 -2 -4 -4 -3 -1 -3 0 -1 4 -0 -2 -2 -5 -1 -1 -0 0 1 -2 -3 -3
3 -0 4 10 2 -46 -3 10 -2 8 -11 -5 -6 -3 -11 -1 1 2 -1 -0 -3 2 -1 2 -3 -1 2 1 -2 3 4 3 -1 -1 -1 -1 2 -6 1 -0 -4 -3 1 0 2 3 2 1 -2
1 -6 -6 -0 12 -9 20 5 9 -1 -4 -5 2 2 -2 -8 2 1 -3 -8 2 2 2 -3 -0 3 -0 0 3 -2 0 -1 3 -7 1 -2 -3 -2 1 3 -2 -4 -2 -2 -1 0 0 3 0
3 6 -1 -7 -8 9 -7 -4 -1 3 6 2 1 -2 -1 -9 -1 -4 -7 3 7 4 3 -0 8 -1 -1 -5 -3 -3 -1 -5 1 -4 1 -2 -4 -3 -4 -1 -2 -4 -4 -2 -0 -1 1 2 4
12 1 -4 -1 -2 11 3 2 -5 3 2 -1 -5 -1 2 2 -7 -8 -2 9 -1 2 1 -4 -3 -4 -7 -0 1 0 1 3 3 -1 -4 -4 -7 0 -6 -1 -5 -3 -3 -2 -1 -1 -3 -2 1
2 10 3 -4 -5 -3 -1 -6 -5 -5 7 -3 -2 -5 -3 -7 -2 -1 7 2 -1 -1 -2 0 -2 2 1 -5 -3 1 -4 4 1 4 -3 -6 -2 -1 -7 -5 -5 -5 -5 -5 -4 -3 -3 -4 -3
5 -7 8 3 5 7 9 8 -12 -2 -4 -5 -6 -2 -1 -0 -0 -0 3 -1 -2 -2 -3 -7 -11 -2 -9 0 -16 -2 -5 -3 -9 -2 3 -6 -2 1 -5 2 0 -2 -5 -4 -4 -5 -5 -5 -4
1 -1 6 2 0 -6 0 3 -6 -4 -3 0 -0 -1 -1 -3 -0 -6 -1 -4 -0 11 -3 -7 0 -14 1 2 -5 -4 -2 -2 -4 -1 1 2 -6 2 -1 2 1 -1 -1 0 -2 -1 -2 -2 -3
3 1 0 2 11 7 -3 -4 4 -3 1 -2 -3 1 -1 1 -5 -4 -4 -3 2 -9 -6 -10 2 1 5 3 -3 8 -1 4 6 1 3 -1 -2 0 4 5 3 1 0 -1 -0 1 0 -3 -3
-7 -2 -4 -3 -1 -3 -1 -3 1 -2 -3 -2 -4 -1 -3 3 13 13 12 11 8 -1 -2 -6 -5 3 5 4 -5 -6 -3 5 -0 -4 2 -5 -6 -1 0 -1 1 -1 -2 -4 -4 -6 -5 -3 -3
-2 -5 -7 0 -0 4 -1 7 7 6 2 -2 -3 8 10 3 4 9 -3 1 8 -1 5 10 -0 3 7 0 1 3 -3 3 -1 7 1 -1 -3 -3 -7 -7 -9 -8 -2 -2 -3 -3 -4 -6 -6
-5 -1 4 0 -3 1 3 -7 7 2 1 8 18 4 9 4 3 2 3 5 5 7 7 10 -3 7 -1 -3 -4 -1 1 -1 -3 -1 2 1 3 2 1 2 -2 3 2 -3 -1 -1 1 -2 -3
7 -1 9 8 3 11 21 1 1 6 11 2 5 5 -1 6 2 4 3 1 3 6 2 6 11 5 1 -4 1 6 9 3 1 2 -3 -3 -1 -2 1 -2 -5 -5 -6 -4 -6 -8 -8 -3 -4
-3 -5 -1 0 -1 0 4 0 7 2 10 9 2 0 1 2 4 5 3 4 1 1 3 2 2 -2 3 7 8 5 4 0 2 3 4 6 7 3 -1 -1 0 -1 -2 -2 -2 -1 -4 -5 -7
9 1 -2 -1 -0 4 10 4 6 2 8 6 0 6 2 4 6 0 6 2 5 2 7 10 10 7 5 3 -1 3 6 2 -2 2 4 5 4 4 3 2 3 4 3 1 -1 -1 -1 -4 -4
2 5 5 5 2 -2 2 1 9 8 -0 4 3 7 6 5 4 6 -1 -1 2 4 5 8 6 7 6 4 8 5 4 7 8 5 4 2 -0 -0 4 2 -1 -1 1 2 1 -1 0 1 -3
0 -2 -1 -1 -2 1 3 -0 7 10 2 3 1 2 7 8 10 5 6 4 2 -2 -1 -3 3 0 -0 -2 0 2 2 1 -2 -2 -4 -5 -4 1 1 1 2 1 2 0 1 1 2 3 2
-0 1 -2 1 -1 -3 2 -3 7 4 -5 -3 -3 -2 -1 -2 -1 -3 -3 -3 1 3 4 -0 0 -2 -4 -5 -5 -6 -4 -4 -4 -1 0 -1 -0 -1 2 2 -2 -1 -1 -2 -3 -1 1 1 -0
-2 -4 -2 -5 -4 -5 -0 4 3 3 2 5 5 4 2 -1 -6 -6 -4 -9 -7 -6 -6 -6 -6 -4 -0 3 3 3 4 6 5 2 0 -1 -1 -0 -6 -3 -0 -2 1 -1 -3 -4 -3 -2 -2
-5 -5 -5 -3 -2 -3 4 1 3 5 12 13 12 7 1 -3 -6 -7 -8 -5 -5 -9 -9 -9 -8 -4 -4 -5 -5 -5 -3 -2 -0 1 -1 -1 -1 -1 -2 -5 -4 -8 -7 -6 -3 -3 -2 -3 -1
1 -4 -0 -3 -0 -1 1 6 11 4 -7 -4 -24 -31 -5 1 0 -4 -0 -3 -1 2 4 1 -5 -4 -4 -3 0 1 0 -3 -5 -1 -2 -4 0 -3 -1 -5 -3 -4 -3 -6 -3 -2 -2 -2 3
-3 -1 -2 -2 -4 -1 1 -0 2 -1 6 -5 -5 -5 3 -2 -6 4 5 4 6 3 -3 -1 -4 -2 -1 -2 -4 -3 -3 -2 1 0 0 1 2 2 1 1 -0 0 -4 -6 -10 -6 -1 -2 1
-1 -3 -2 -1 -1 -4 -2 -3 -3 2 4 -1 -0 6 8 9 9 6 2 2 1 -0 -1 -0 -2 -4 -4 -1 2 1 1 -2 -5 -7 -6 -6 -2 0 -2 0 5 4 -5 -1 -6 -1 -3 1 1
0 -4 -3 -4 -1 -1 1 -2 -5 -4 1 3 -0 0 -0 -4 -5 1 8 7 3 -1 -1 -1 -2 -0 -1 0 0 0 -2 -4 -5 -6 -3 -1 -3 -1 2 6 2 -4 -6 1 -6 0 -3 -4 -2
Height
3163 3163 3165 3166 3172 3170 3167 3167 3165 3166 3166 3169 3170 3169 3168 3170 3173 3177 3175 3177 3181 3183 3186 3189 3190 3192 3193 3193 3193 3193 3193 3193 3192 3191 3190 3189 3187 3185 3184 3183 3182 3182 3180 3178 3176 3174 3173 3172 3172
3163 3163 3165 3165 3169 3165 3168 3166 3162 3167 3166 3168 3168 3169 3168 3171 3174 3174 3175 3177 3181 3183 3187 3188 3190 3191 3193 3193 3193 3192 3192 3192 3191 3190 3188 3186 3184 3183 3183 3182 3182 3181 3180 3177 3175 3172 3172 3171 3169
3161 3162 3166 3165 3164 3163 3165 3166 3165 3169 3168 3167 3167 3168 3169 3171 3173 3174 3175 3178 3181 3184 3186 3188 3191 3192 3192 3192 3192 3192 3191 3190 3188 3187 3186 3185 3184 3183 3181 3181 3180 3179 3178 3176 3174 3172 3171 3169 3169
3159 3163 3167 3165 3162 3159 3163 3165 3164 3167 3168 3168 3169 3169 3168 3170 3172 3175 3176 3178 3181 3184 3186 3188 3190 3191 3191 3191 3191 3189 3188 3187 3186 3185 3185 3184 3183 3183 3182 3181 3180 3178 3177 3175 3174 3172 3170 3168 3167
3160 3163 3165 3163 3163 3160 3165 3165 3166 3165 3166 3166 3168 3168 3170 3171 3173 3175 3177 3179 3182 3184 3186 3188 3189 3190 3190 3189 3188 3187 3187 3186 3186 3186 3186 3184 3184 3184 3182 3180 3179 3177 3176 3174 3172 3170 3169 3167 3166
3162 3163 3165 3163 3164 3163 3165 3166 3165 3165 3165 3166 3167 3168 3170 3172 3174 3175 3178 3181 3184 3185 3187 3188 3188 3189 3188 3188 3188 3187 3186 3186 3186 3185 3185 3184 3183 3182 3181 3178 3177 3175 3175 3172 3170 3168 3167 3165 3164
3160 3165 3163 3163 3165 3163 3167 3167 3162 3164 3166 3167 3168 3168 3171 3174 3175 3177 3179 3181 3183 3185 3186 3187 3188 3188 3187 3187 3187 3187 3186 3186 3186 3186 3185 3184 3182 3180 3178 3176 3175 3173 3173 3170 3167 3165 3163 3162 3160
3161 3161 3160 3160 3162 3162 3171 3167 3165 3165 3165 3166 3168 3168 3170 3174 3176 3177 3179 3181 3183 3185 3186 3186 3186 3187 3187 3187 3187 3187 3186 3185 3185 3185 3185 3183 3182 3181 3178 3175 3174 3173 3171 3168 3165 3162 3160 3158 3156
3158 3160 3158 3160 3163 3165 3167 3166 3166 3167 3165 3167 3168 3169 3170 3174 3177 3178 3179 3181 3183 3183 3184 3185 3186 3186 3185 3186 3186 3186 3186 3186 3184 3185 3185 3184 3183 3180 3177 3174 3172 3170 3168 3165 3163 3160 3158 3156 3154
3158 3157 3154 3156 3162 3163 3165 3166 3167 3169 3168 3168 3169 3169 3171 3173 3176 3177 3178 3181 3183 3182 3184 3185 3185 3185 3185 3186 3188 3188 3186 3186 3185 3184 3184 3182 3179 3177 3176 3172 3169 3168 3166 3164 3161 3158 3155 3153 3152
3157 3158 3158 3158 3162 3165 3165 3165 3166 3166 3167 3166 3167 3169 3171 3171 3173 3174 3177 3179 3179 3181 3182 3183 3182 3183 3186 3187 3187 3186 3187 3184 3184 3180 3181 3179 3177 3176 3173 3171 3168 3166 3164 3162 3159 3156 3153 3150 3148
3158 3160 3160 3162 3163 3164 3163 3164 3165 3166 3167 3167 3168 3169 3169 3171 3172 3174 3174 3177 3177 3180 3181 3182 3182 3182 3183 3184 3184 3183 3185 3185 3184 3178 3176 3174 3174 3172 3170 3168 3166 3164 3162 3159 3156 3153 3150 3148 3145
3157 3159 3161 3163 3162 3164 3165 3163 3165 3165 3167 3168 3168 3170 3171 3171 3172 3172 3174 3175 3175 3179 3179 3181 3183 3181 3180 3180 3182 3181 3181 3181 3182 3179 3176 3173 3172 3170 3168 3165 3162 3159 3157 3155 3151 3148 3145 3143 3140
3156 3159 3160 3161 3162 3164 3165 3164 3165 3166 3167 3168 3168 3169 3171 3172 3172 3173 3172 3174 3176 3178 3178 3181 3182 3183 3183 3180 3181 3179 3175 3176 3176 3175 3174 3170 3170 3168 3165 3163 3159 3155 3152 3150 3147 3143 3140 3137 3134
3157 3158 3158 3159 3163 3163 3163 3165 3165 3166 3167 3167 3168 3169 3170 3172 3171 3170 3172 3174 3174 3177 3178 3181 3183 3184 3183 3182 3181 3179 3176 3176 3173 3171 3170 3167 3166 3165 3163 3159 3154 3151 3149 3145 3142 3138 3134 3131 3127
3158 3158 3158 3160 3162 3162 3164 3164 3165 3165 3166 3167 3167 3168 3169 3171 3172 3173 3173 3174 3174 3175 3176 3178 3179 3180 3181 3179 3178 3177 3175 3173 3168 3166 3163 3162 3161 3160 3157 3153 3149 3145 3143 3138 3134 3130 3126 3122 3119
3157 3157 3158 3162 3162 3162 3162 3163 3164 3165 3165 3165 3166 3168 3170 3171 3171 3171 3171 3171 3172 3173 3175 3176 3175 3177 3176 3175 3174 3173 3171 3168 3165 3161 3158 3154 3151 3149 3147 3145 3142 3138 3134 3130 3125 3121 3116 3111 3108
3157 3157 3156 3158 3160 3161 3162 3163 3161 3163 3165 3166 3168 3167 3167 3168 3169 3169 3170 3169 3172 3173 3173 3173 3172 3173 3173 3170 3168 3166 3165 3161 3158 3155 3152 3149 3147 3144 3141 3137 3132 3128 3124 3120 3116 3111 3107 3102 3096
3156 3152 3151 3157 3160 3162 3161 3160 3161 3163 3165 3165 3166 3165 3165 3165 3166 3167 3168 3170 3172 3172 3172 3171 3170 3169 3167 3165 3163 3161 3159 3156 3153 3150 3147 3145 3142 3138 3134 3128 3123 3118 3113 3108 3104 3098 3094 3091 3086
3155 3155 3157 3158 3159 3160 3160 3161 3161 3162 3163 3163 3162 3162 3163 3164 3165 3166 3169 3170 3171 3171 3168 3167 3166 3164 3162 3161 3160 3159 3156 3152 3148 3146 3144 3140 3136 3131 3125 3119 3114 3108 3102 3098 3093 3088 3081 3077 3073
3154 3155 3156 3158 3158 3160 3159 3161 3160 3160 3160 3160 3161 3161 3161 3163 3164 3165 3167 3168 3169 3168 3168 3167 3164 3161 3160 3159 3157 3154 3152 3149 3146 3141 3137 3133 3128 3122 3115 3109 3102 3096 3090 3085 3079 3074 3070 3064 3060
3153 3154 3155 3155 3155 3156 3157 3161 3159 3157 3158 3160 3159 3160 3161 3162 3165 3166 3166 3166 3166 3165 3164 3164 3162 3160 3157 3154 3152 3150 3146 3143 3140 3136 3130 3124 3118 3112 3105 3098 3093 3087 3081 3076 3069 3063 3057 3051 3046
3153 3152 3152 3152 3152 3153 3154 3157 3162 3160 3157 3157 3159 3160 3161 3163 3163 3164 3164 3165 3165 3163 3160 3158 3157 3153 3149 3146 3142 3138 3135 3131 3127 3122 3117 3112 3108 3102 3095 3088 3082 3076 3070 3064 3058 3052 3046 3041 3035
3150 3151 3151 3151 3152 3153 3153 3153 3161 3159 3158 3158 3158 3158 3159 3160 3162 3164 3163 3162 3161 3159 3156 3152 3146 3143 3139 3137 3135 3132 3128 3123 3118 3113 3108 3104 3099 3092 3085 3078 3072 3066 3059 3053 3048 3043 3037 3031 3025
3149 3149 3150 3154 3155 3155 3154 3154 3156 3158 3158 3158 3157 3157 3157 3158 3160 3159 3158 3156 3153 3152 3149 3146 3142 3138 3134 3131 3127 3123 3119 3114 3108 3102 3098 3093 3086 3079 3072 3066 3060 3054 3048 3041 3035 3030 3025 3019 3014
3150 3150 3150 3155 3158 3154 3153 3155 3157 3156 3156 3157 3157 3156 3156 3156 3154 3152 3150 3147 3146 3145 3143 3141 3138 3135 3131 3126 3121 3116 3111 3105 3098 3092 3087 3081 3075 3068 3061 3054 3048 3041 3036 3031 3025 3018 3013 3008 3003
3150 3150 3152 3152 3154 3154 3156 3158 3159 3158 3158 3157 3155 3155 3156 3153 3151 3149 3148 3146 3144 3141 3139 3136 3132 3128 3123 3118 3113 3108 3102 3096 3090 3085 3079 3073 3067 3059 3051 3045 3039 3033 3027 3021 3015 3010 3004 2999 2994
3150 3152 3152 3151 3155 3156 3155 3156 3155 3155 3154 3153 3152 3152 3152 3150 3150 3148 3146 3144 3142 3138 3134 3131 3128 3122 3117 3111 3106 3100 3093 3087 3081 3075 3069 3063 3057 3051 3043 3037 3031 3024 3018 3012 3006 3001 2995 2990 2986
3151 3151 3151 3152 3152 3153 3158 3155 3153 3153 3152 3151 3150 3149 3149 3148 3147 3145 3144 3141 3137 3134 3130 3125 3119 3114 3109 3103 3097 3091 3086 3080 3072 3065 3058 3052 3047 3042 3035 3029 3023 3017 3011 3006 3000 2993 2986 2982 2978
3149 3149 3151 3151 3153 3152 3152 3152 3150 3152 3151 3149 3149 3148 3148 3147 3144 3141 3139 3137 3134 3129 3124 3119 3112 3106 3100 3095 3089 3083 3076 3069 3062 3055 3050 3044 3037 3033 3025 3019 3014 3010 3004 2997 2991 2984 2978 2974 2969